Year,Month,Day,Hour,Minute,Value (Times are PST for temperature in C)
2016,07,15,00,00,15.00
2016,07,15,00,01,15.00
2016,07,15,00,02,15.00
2016,07,15,00,03,15.10
2016,07,15,00,04,15.10
2016,07,15,00,05,15.10
2016,07,15,00,06,15.10
2016,07,15,00,07,15.10
2016,07,15,00,08,15.10
2016,07,15,00,09,15.10
2016,07,15,00,10,15.10
2016,07,15,00,11,15.10
2016,07,15,00,12,15.10
2016,07,15,00,13,15.10
2016,07,15,00,14,15.20
2016,07,15,00,15,15.20
2016,07,15,00,16,15.20
2016,07,15,00,17,15.20
2016,07,15,00,18,15.20
2016,07,15,00,19,15.20
2016,07,15,00,20,15.20
2016,07,15,00,21,15.30
2016,07,15,00,22,15.30
2016,07,15,00,23,15.30
2016,07,15,00,24,15.30
2016,07,15,00,25,15.20
2016,07,15,00,26,15.20
2016,07,15,00,27,15.20
2016,07,15,00,28,15.20
2016,07,15,00,29,15.20
2016,07,15,00,30,15.20
2016,07,15,00,31,15.20
2016,07,15,00,32,15.20
2016,07,15,00,33,15.20
2016,07,15,00,34,15.20
2016,07,15,00,35,15.20
2016,07,15,00,36,15.10
2016,07,15,00,37,15.10
2016,07,15,00,38,15.10
2016,07,15,00,39,15.10
2016,07,15,00,40,15.10
2016,07,15,00,41,15.00
2016,07,15,00,42,15.00
2016,07,15,00,43,15.00
2016,07,15,00,44,15.00
2016,07,15,00,45,15.00
2016,07,15,00,46,15.00
2016,07,15,00,47,15.00
2016,07,15,00,48,15.00
2016,07,15,00,49,14.90
2016,07,15,00,50,14.90
2016,07,15,00,51,14.90
2016,07,15,00,52,14.90
2016,07,15,00,53,14.90
2016,07,15,00,54,14.90
2016,07,15,00,55,14.90
2016,07,15,00,56,14.90
2016,07,15,00,57,14.90
2016,07,15,00,58,14.80
2016,07,15,00,59,14.80
2016,07,15,01,00,14.80
2016,07,15,01,01,14.80
2016,07,15,01,02,14.80
2016,07,15,01,03,14.80
2016,07,15,01,04,14.80
2016,07,15,01,05,14.70
2016,07,15,01,06,14.70
2016,07,15,01,07,14.70
2016,07,15,01,08,14.70
2016,07,15,01,09,14.70
2016,07,15,01,10,14.70
2016,07,15,01,11,14.70
2016,07,15,01,12,14.70
2016,07,15,01,13,14.70
2016,07,15,01,14,14.70
2016,07,15,01,15,14.70
2016,07,15,01,16,14.70
2016,07,15,01,17,14.70
2016,07,15,01,18,14.70
2016,07,15,01,19,14.70
2016,07,15,01,20,14.70
2016,07,15,01,21,14.70
2016,07,15,01,22,14.60
2016,07,15,01,23,14.60
2016,07,15,01,24,14.60
2016,07,15,01,25,14.60
2016,07,15,01,26,14.60
2016,07,15,01,27,14.60
2016,07,15,01,28,14.60
2016,07,15,01,29,14.50
2016,07,15,01,30,14.50
2016,07,15,01,31,14.50
2016,07,15,01,32,14.50
2016,07,15,01,33,14.50
2016,07,15,01,34,14.40
2016,07,15,01,35,14.40
2016,07,15,01,36,14.40
2016,07,15,01,37,14.40
2016,07,15,01,38,14.40
2016,07,15,01,39,14.40
2016,07,15,01,40,14.30
2016,07,15,01,41,14.30
2016,07,15,01,42,14.30
2016,07,15,01,43,14.30
2016,07,15,01,44,14.30
2016,07,15,01,45,14.30
2016,07,15,01,46,14.30
2016,07,15,01,47,14.30
2016,07,15,01,48,14.30
2016,07,15,01,49,14.30
2016,07,15,01,50,14.30
2016,07,15,01,51,14.30
2016,07,15,01,52,14.30
2016,07,15,01,53,14.30
2016,07,15,01,54,14.30
2016,07,15,01,55,14.30
2016,07,15,01,56,14.30
2016,07,15,01,57,14.20
2016,07,15,01,58,14.20
2016,07,15,01,59,14.20
2016,07,15,02,00,14.20
2016,07,15,02,01,14.20
2016,07,15,02,02,14.20
2016,07,15,02,03,14.20
2016,07,15,02,04,14.20
2016,07,15,02,05,14.20
2016,07,15,02,06,14.20
2016,07,15,02,07,14.20
2016,07,15,02,08,14.10
2016,07,15,02,09,14.10
2016,07,15,02,10,14.10
2016,07,15,02,11,14.10
2016,07,15,02,12,14.00
2016,07,15,02,13,13.90
2016,07,15,02,14,13.80
2016,07,15,02,15,13.70
2016,07,15,02,16,13.60
2016,07,15,02,17,13.50
2016,07,15,02,18,13.40
2016,07,15,02,19,13.30
2016,07,15,02,20,13.30
2016,07,15,02,21,13.20
2016,07,15,02,22,13.20
2016,07,15,02,23,13.10
2016,07,15,02,24,13.10
2016,07,15,02,25,13.10
2016,07,15,02,26,13.10
2016,07,15,02,27,13.10
2016,07,15,02,28,13.10
2016,07,15,02,29,13.20
2016,07,15,02,30,13.20
2016,07,15,02,31,13.20
2016,07,15,02,32,13.20
2016,07,15,02,33,13.20
2016,07,15,02,34,13.20
2016,07,15,02,35,13.20
2016,07,15,02,36,13.20
2016,07,15,02,37,13.20
2016,07,15,02,38,13.20
2016,07,15,02,39,13.20
2016,07,15,02,40,13.20
2016,07,15,02,41,13.20
2016,07,15,02,42,13.20
2016,07,15,02,43,13.20
2016,07,15,02,44,13.20
2016,07,15,02,45,13.20
2016,07,15,02,46,13.20
2016,07,15,02,47,13.20
2016,07,15,02,48,13.20
2016,07,15,02,49,13.20
2016,07,15,02,50,13.20
2016,07,15,02,51,13.20
2016,07,15,02,52,13.20
2016,07,15,02,53,13.20
2016,07,15,02,54,13.20
2016,07,15,02,55,13.20
2016,07,15,02,56,13.20
2016,07,15,02,57,13.20
2016,07,15,02,58,13.20
2016,07,15,02,59,13.20
2016,07,15,03,00,13.10
2016,07,15,03,01,13.10
2016,07,15,03,02,13.10
2016,07,15,03,03,13.10
2016,07,15,03,04,13.10
2016,07,15,03,05,13.10
2016,07,15,03,06,13.10
2016,07,15,03,07,13.10
2016,07,15,03,08,13.10
2016,07,15,03,09,13.00
2016,07,15,03,10,13.10
2016,07,15,03,11,13.10
2016,07,15,03,12,13.00
2016,07,15,03,13,13.00
2016,07,15,03,14,13.00
2016,07,15,03,15,13.00
2016,07,15,03,16,12.90
2016,07,15,03,17,12.90
2016,07,15,03,18,12.90
2016,07,15,03,19,12.90
2016,07,15,03,20,12.90
2016,07,15,03,21,12.90
2016,07,15,03,22,12.90
2016,07,15,03,23,12.90
2016,07,15,03,24,12.80
2016,07,15,03,25,12.80
2016,07,15,03,26,12.80
2016,07,15,03,27,12.80
2016,07,15,03,28,12.80
2016,07,15,03,29,12.80
2016,07,15,03,30,12.80
2016,07,15,03,31,12.70
2016,07,15,03,32,12.70
2016,07,15,03,33,12.70
2016,07,15,03,34,12.70
2016,07,15,03,35,12.60
2016,07,15,03,36,12.60
2016,07,15,03,37,12.60
2016,07,15,03,38,12.60
2016,07,15,03,39,12.50
2016,07,15,03,40,12.50
2016,07,15,03,41,12.50
2016,07,15,03,42,12.50
2016,07,15,03,43,12.50
2016,07,15,03,44,12.40
2016,07,15,03,45,12.40
2016,07,15,03,46,12.40
2016,07,15,03,47,12.40
2016,07,15,03,48,12.40
2016,07,15,03,49,12.40
2016,07,15,03,50,12.30
2016,07,15,03,51,12.30
2016,07,15,03,52,12.10
2016,07,15,03,53,12.00
2016,07,15,03,54,11.90
2016,07,15,03,55,11.80
2016,07,15,03,56,11.60
2016,07,15,03,57,11.50
2016,07,15,03,58,11.40
2016,07,15,03,59,11.40
2016,07,15,04,00,11.30
2016,07,15,04,01,11.30
2016,07,15,04,02,11.30
2016,07,15,04,03,11.30
2016,07,15,04,04,11.30
2016,07,15,04,05,11.30
2016,07,15,04,06,11.30
2016,07,15,04,07,11.30
2016,07,15,04,08,11.30
2016,07,15,04,09,11.30
2016,07,15,04,10,11.30
2016,07,15,04,11,11.30
2016,07,15,04,12,11.20
2016,07,15,04,13,11.10
2016,07,15,04,14,11.00
2016,07,15,04,15,11.00
2016,07,15,04,16,11.00
2016,07,15,04,17,10.90
2016,07,15,04,18,10.90
2016,07,15,04,19,11.00
2016,07,15,04,20,11.00
2016,07,15,04,21,11.00
2016,07,15,04,22,11.00
2016,07,15,04,23,11.10
2016,07,15,04,24,11.10
2016,07,15,04,25,11.10
2016,07,15,04,26,11.10
2016,07,15,04,27,11.10
2016,07,15,04,28,11.20
2016,07,15,04,29,11.20
2016,07,15,04,30,11.30
2016,07,15,04,31,11.30
2016,07,15,04,32,11.30
2016,07,15,04,33,11.40
2016,07,15,04,34,11.40
2016,07,15,04,35,11.40
2016,07,15,04,36,11.50
2016,07,15,04,37,11.50
2016,07,15,04,38,11.60
2016,07,15,04,39,11.60
2016,07,15,04,40,11.70
2016,07,15,04,41,11.70
2016,07,15,04,42,11.80
2016,07,15,04,43,11.80
2016,07,15,04,44,11.90
2016,07,15,04,45,11.90
2016,07,15,04,46,12.00
2016,07,15,04,47,12.10
2016,07,15,04,48,12.10
2016,07,15,04,49,12.10
2016,07,15,04,50,11.90
2016,07,15,04,51,11.80
2016,07,15,04,52,11.70
2016,07,15,04,53,11.60
2016,07,15,04,54,11.50
2016,07,15,04,55,11.40
2016,07,15,04,56,11.30
2016,07,15,04,57,11.20
2016,07,15,04,58,11.20
2016,07,15,04,59,11.20
2016,07,15,05,00,11.20
2016,07,15,05,01,11.30
2016,07,15,05,02,11.30
2016,07,15,05,03,11.30
2016,07,15,05,04,11.30
2016,07,15,05,05,11.30
2016,07,15,05,06,11.30
2016,07,15,05,07,11.20
2016,07,15,05,08,11.20
2016,07,15,05,09,11.10
2016,07,15,05,10,11.00
2016,07,15,05,11,10.90
2016,07,15,05,12,10.80
2016,07,15,05,13,10.80
2016,07,15,05,14,10.70
2016,07,15,05,15,10.70
2016,07,15,05,16,10.60
2016,07,15,05,17,10.60
2016,07,15,05,18,10.50
2016,07,15,05,19,10.50
2016,07,15,05,20,10.40
2016,07,15,05,21,10.40
2016,07,15,05,22,10.40
2016,07,15,05,23,10.40
2016,07,15,05,24,10.40
2016,07,15,05,25,10.40
2016,07,15,05,26,10.40
2016,07,15,05,27,10.40
2016,07,15,05,28,10.40
2016,07,15,05,29,10.30
2016,07,15,05,30,10.30
2016,07,15,05,31,10.30
2016,07,15,05,32,10.40
2016,07,15,05,33,10.30
2016,07,15,05,34,10.30
2016,07,15,05,35,10.30
2016,07,15,05,36,10.30
2016,07,15,05,37,10.20
2016,07,15,05,38,10.20
2016,07,15,05,39,10.10
2016,07,15,05,40,10.10
2016,07,15,05,41,10.10
2016,07,15,05,42,10.10
2016,07,15,05,43,10.10
2016,07,15,05,44,10.10
2016,07,15,05,45,10.20
2016,07,15,05,46,10.20
2016,07,15,05,47,10.30
2016,07,15,05,48,10.30
2016,07,15,05,49,10.40
2016,07,15,05,50,10.60
2016,07,15,05,51,10.70
2016,07,15,05,52,10.90
2016,07,15,05,53,11.10
2016,07,15,05,54,11.20
2016,07,15,05,55,11.30
2016,07,15,05,56,11.40
2016,07,15,05,57,11.50
2016,07,15,05,58,11.60
2016,07,15,05,59,11.70
2016,07,15,06,00,11.80
2016,07,15,06,01,11.80
2016,07,15,06,02,11.80
2016,07,15,06,03,11.80
2016,07,15,06,04,11.80
2016,07,15,06,05,11.70
2016,07,15,06,06,11.70
2016,07,15,06,07,11.70
2016,07,15,06,08,11.70
2016,07,15,06,09,11.60
2016,07,15,06,10,11.60
2016,07,15,06,11,11.60
2016,07,15,06,12,11.70
2016,07,15,06,13,11.70
2016,07,15,06,14,11.70
2016,07,15,06,15,11.70
2016,07,15,06,16,11.70
2016,07,15,06,17,11.80
2016,07,15,06,18,11.80
2016,07,15,06,19,11.80
2016,07,15,06,20,11.80
2016,07,15,06,21,11.90
2016,07,15,06,22,11.90
2016,07,15,06,23,11.90
2016,07,15,06,24,11.90
2016,07,15,06,25,11.90
2016,07,15,06,26,11.90
2016,07,15,06,27,11.90
2016,07,15,06,28,11.90
2016,07,15,06,29,11.80
2016,07,15,06,30,11.70
2016,07,15,06,31,11.60
2016,07,15,06,32,11.50
2016,07,15,06,33,11.40
2016,07,15,06,34,11.30
2016,07,15,06,35,11.30
2016,07,15,06,36,11.40
2016,07,15,06,37,11.40
2016,07,15,06,38,11.50
2016,07,15,06,39,11.50
2016,07,15,06,40,11.50
2016,07,15,06,41,11.50
2016,07,15,06,42,11.50
2016,07,15,06,43,11.60
2016,07,15,06,44,11.60
2016,07,15,06,45,11.70
2016,07,15,06,46,11.70
2016,07,15,06,47,11.80
2016,07,15,06,48,11.90
2016,07,15,06,49,12.00
2016,07,15,06,50,12.10
2016,07,15,06,51,12.30
2016,07,15,06,52,12.50
2016,07,15,06,53,12.70
2016,07,15,06,54,12.90
2016,07,15,06,55,13.10
2016,07,15,06,56,13.30
2016,07,15,06,57,13.40
2016,07,15,06,58,13.50
2016,07,15,06,59,13.60
2016,07,15,07,00,13.70
2016,07,15,07,01,13.80
2016,07,15,07,02,13.90
2016,07,15,07,03,14.00
2016,07,15,07,04,14.00
2016,07,15,07,05,14.10
2016,07,15,07,06,14.20
2016,07,15,07,07,14.20
2016,07,15,07,08,14.30
2016,07,15,07,09,14.30
2016,07,15,07,10,14.40
2016,07,15,07,11,14.40
2016,07,15,07,12,14.40
2016,07,15,07,13,14.40
2016,07,15,07,14,14.50
2016,07,15,07,15,14.50
2016,07,15,07,16,14.50
2016,07,15,07,17,14.50
2016,07,15,07,18,14.50
2016,07,15,07,19,14.60
2016,07,15,07,20,14.60
2016,07,15,07,21,14.60
2016,07,15,07,22,14.60
2016,07,15,07,23,14.60
2016,07,15,07,24,14.60
2016,07,15,07,25,14.60
2016,07,15,07,26,14.60
2016,07,15,07,27,14.70
2016,07,15,07,28,14.70
2016,07,15,07,29,14.70
2016,07,15,07,30,14.70
2016,07,15,07,31,14.70
2016,07,15,07,32,14.70
2016,07,15,07,33,14.70
2016,07,15,07,34,14.70
2016,07,15,07,35,14.70
2016,07,15,07,36,14.70
2016,07,15,07,37,14.80
2016,07,15,07,38,14.80
2016,07,15,07,39,14.80
2016,07,15,07,40,14.80
2016,07,15,07,41,14.90
2016,07,15,07,42,14.90
2016,07,15,07,43,14.90
2016,07,15,07,44,14.90
2016,07,15,07,45,15.00
2016,07,15,07,46,15.00
2016,07,15,07,47,15.00
2016,07,15,07,48,15.10
2016,07,15,07,49,15.10
2016,07,15,07,50,15.10
2016,07,15,07,51,15.10
2016,07,15,07,52,15.10
2016,07,15,07,53,15.20
2016,07,15,07,54,15.20
2016,07,15,07,55,15.20
2016,07,15,07,56,15.20
2016,07,15,07,57,15.20
2016,07,15,07,58,15.30
2016,07,15,07,59,15.30
2016,07,15,08,00,15.30
2016,07,15,08,01,15.40
2016,07,15,08,02,15.40
2016,07,15,08,03,15.40
2016,07,15,08,04,15.40
2016,07,15,08,05,15.40
2016,07,15,08,06,15.50
2016,07,15,08,07,15.50
2016,07,15,08,08,15.50
2016,07,15,08,09,15.60
2016,07,15,08,10,15.60
2016,07,15,08,11,15.60
2016,07,15,08,12,15.60
2016,07,15,08,13,15.70
2016,07,15,08,14,15.70
2016,07,15,08,15,15.70
2016,07,15,08,16,15.70
2016,07,15,08,17,15.80
2016,07,15,08,18,15.80
2016,07,15,08,19,15.80
2016,07,15,08,20,15.80
2016,07,15,08,21,15.80
2016,07,15,08,22,15.90
2016,07,15,08,23,15.90
2016,07,15,08,24,15.90
2016,07,15,08,25,16.00
2016,07,15,08,26,16.00
2016,07,15,08,27,16.00
2016,07,15,08,28,16.00
2016,07,15,08,29,16.00
2016,07,15,08,30,16.10
2016,07,15,08,31,16.10
2016,07,15,08,32,16.10
2016,07,15,08,33,16.20
2016,07,15,08,34,16.20
2016,07,15,08,35,16.20
2016,07,15,08,36,16.30
2016,07,15,08,37,16.30
2016,07,15,08,38,16.30
2016,07,15,08,39,16.30
2016,07,15,08,40,16.30
2016,07,15,08,41,16.30
2016,07,15,08,42,16.30
2016,07,15,08,43,16.30
2016,07,15,08,44,16.40
2016,07,15,08,45,16.40
2016,07,15,08,46,16.40
2016,07,15,08,47,16.40
2016,07,15,08,48,16.50
2016,07,15,08,49,16.60
2016,07,15,08,50,16.60
2016,07,15,08,51,16.60
2016,07,15,08,52,16.60
2016,07,15,08,53,16.60
2016,07,15,08,54,16.60
2016,07,15,08,55,16.70
2016,07,15,08,56,16.70
2016,07,15,08,57,16.70
2016,07,15,08,58,16.70
2016,07,15,08,59,16.80
2016,07,15,09,00,16.80
2016,07,15,09,01,16.80
2016,07,15,09,02,16.80
2016,07,15,09,03,16.80
2016,07,15,09,04,16.80
2016,07,15,09,05,16.80
2016,07,15,09,06,16.80
2016,07,15,09,07,16.80
2016,07,15,09,08,16.90
2016,07,15,09,09,16.90
2016,07,15,09,10,16.80
2016,07,15,09,11,16.90
2016,07,15,09,12,16.90
2016,07,15,09,13,16.90
2016,07,15,09,14,16.90
2016,07,15,09,15,17.00
2016,07,15,09,16,17.00
2016,07,15,09,17,17.20
2016,07,15,09,18,17.20
2016,07,15,09,19,17.30
2016,07,15,09,20,17.30
2016,07,15,09,21,17.30
2016,07,15,09,22,17.40
2016,07,15,09,23,17.50
2016,07,15,09,24,17.50
2016,07,15,09,25,17.40
2016,07,15,09,26,17.40
2016,07,15,09,27,17.40
2016,07,15,09,28,17.30
2016,07,15,09,29,17.30
2016,07,15,09,30,17.30
2016,07,15,09,31,17.40
2016,07,15,09,32,17.40
2016,07,15,09,33,17.40
2016,07,15,09,34,17.40
2016,07,15,09,35,17.40
2016,07,15,09,36,17.40
2016,07,15,09,37,17.40
2016,07,15,09,38,17.50
2016,07,15,09,39,17.50
2016,07,15,09,40,17.50
2016,07,15,09,41,17.60
2016,07,15,09,42,17.60
2016,07,15,09,43,17.60
2016,07,15,09,44,17.70
2016,07,15,09,45,17.70
2016,07,15,09,46,17.70
2016,07,15,09,47,17.70
2016,07,15,09,48,17.70
2016,07,15,09,49,17.70
2016,07,15,09,50,17.80
2016,07,15,09,51,17.80
2016,07,15,09,52,17.80
2016,07,15,09,53,17.80
2016,07,15,09,54,17.90
2016,07,15,09,55,17.90
2016,07,15,09,56,18.00
2016,07,15,09,57,18.00
2016,07,15,09,58,18.10
2016,07,15,09,59,18.10
2016,07,15,10,00,18.10
2016,07,15,10,01,18.10
2016,07,15,10,02,18.00
2016,07,15,10,03,17.90
2016,07,15,10,04,17.90
2016,07,15,10,05,17.90
2016,07,15,10,06,18.00
2016,07,15,10,07,18.00
2016,07,15,10,08,18.10
2016,07,15,10,09,18.10
2016,07,15,10,10,18.10
2016,07,15,10,11,18.10
2016,07,15,10,12,18.10
2016,07,15,10,13,18.10
2016,07,15,10,14,18.10
2016,07,15,10,15,18.10
2016,07,15,10,16,18.20
2016,07,15,10,17,18.20
2016,07,15,10,18,18.20
2016,07,15,10,19,18.20
2016,07,15,10,20,18.20
2016,07,15,10,21,18.20
2016,07,15,10,22,18.20
2016,07,15,10,23,18.30
2016,07,15,10,24,18.30
2016,07,15,10,25,18.30
2016,07,15,10,26,18.40
2016,07,15,10,27,18.40
2016,07,15,10,28,18.40
2016,07,15,10,29,18.40
2016,07,15,10,30,18.40
2016,07,15,10,31,18.40
2016,07,15,10,32,18.40
2016,07,15,10,33,18.40
2016,07,15,10,34,18.40
2016,07,15,10,35,18.40
2016,07,15,10,36,18.30
2016,07,15,10,37,18.30
2016,07,15,10,38,18.30
2016,07,15,10,39,18.40
2016,07,15,10,40,18.50
2016,07,15,10,41,18.50
2016,07,15,10,42,18.60
2016,07,15,10,43,18.70
2016,07,15,10,44,18.80
2016,07,15,10,45,18.90
2016,07,15,10,46,18.90
2016,07,15,10,47,18.90
2016,07,15,10,48,18.80
2016,07,15,10,49,18.80
2016,07,15,10,50,18.80
2016,07,15,10,51,18.70
2016,07,15,10,52,18.60
2016,07,15,10,53,18.60
2016,07,15,10,54,18.50
2016,07,15,10,55,18.50
2016,07,15,10,56,18.40
2016,07,15,10,57,18.50
2016,07,15,10,58,18.50
2016,07,15,10,59,18.50
2016,07,15,11,00,18.50
2016,07,15,11,01,18.50
2016,07,15,11,02,18.50
2016,07,15,11,03,18.50
2016,07,15,11,04,18.40
2016,07,15,11,05,18.40
2016,07,15,11,06,18.40
2016,07,15,11,07,18.40
2016,07,15,11,08,18.50
2016,07,15,11,09,18.50
2016,07,15,11,10,18.50
2016,07,15,11,11,18.50
2016,07,15,11,12,18.40
2016,07,15,11,13,18.40
2016,07,15,11,14,18.50
2016,07,15,11,15,18.50
2016,07,15,11,16,18.60
2016,07,15,11,17,18.60
2016,07,15,11,18,18.60
2016,07,15,11,19,18.60
2016,07,15,11,20,18.60
2016,07,15,11,21,18.60
2016,07,15,11,22,18.60
2016,07,15,11,23,18.60
2016,07,15,11,24,18.60
2016,07,15,11,25,18.70
2016,07,15,11,26,18.70
2016,07,15,11,27,18.70
2016,07,15,11,28,18.70
2016,07,15,11,29,18.70
2016,07,15,11,30,18.70
2016,07,15,11,31,18.70
2016,07,15,11,32,18.80
2016,07,15,11,33,18.80
2016,07,15,11,34,18.80
2016,07,15,11,35,18.80
2016,07,15,11,36,18.80
2016,07,15,11,37,18.80
2016,07,15,11,38,18.70
2016,07,15,11,39,18.70
2016,07,15,11,40,18.70
2016,07,15,11,41,18.70
2016,07,15,11,42,18.70
2016,07,15,11,43,18.70
2016,07,15,11,44,18.70
2016,07,15,11,45,18.70
2016,07,15,11,46,18.70
2016,07,15,11,47,18.70
2016,07,15,11,48,18.80
2016,07,15,11,49,18.90
2016,07,15,11,50,19.00
2016,07,15,11,51,19.00
2016,07,15,11,52,19.00
2016,07,15,11,53,19.00
2016,07,15,11,54,19.00
2016,07,15,11,55,18.90
2016,07,15,11,56,19.00
2016,07,15,11,57,19.00
2016,07,15,11,58,19.10
2016,07,15,11,59,19.10
2016,07,15,12,00,19.00
2016,07,15,12,01,19.10
2016,07,15,12,02,19.10
2016,07,15,12,03,19.10
2016,07,15,12,04,19.20
2016,07,15,12,05,19.20
2016,07,15,12,06,19.20
2016,07,15,12,07,19.20
2016,07,15,12,08,19.30
2016,07,15,12,09,19.20
2016,07,15,12,10,19.20
2016,07,15,12,11,19.20
2016,07,15,12,12,19.20
2016,07,15,12,13,19.20
2016,07,15,12,14,19.20
2016,07,15,12,15,19.20
2016,07,15,12,16,19.20
2016,07,15,12,17,19.20
2016,07,15,12,18,19.20
2016,07,15,12,19,19.20
2016,07,15,12,20,19.10
2016,07,15,12,21,19.10
2016,07,15,12,22,19.20
2016,07,15,12,23,19.20
2016,07,15,12,24,19.30
2016,07,15,12,25,19.30
2016,07,15,12,26,19.30
2016,07,15,12,27,19.30
2016,07,15,12,28,19.30
2016,07,15,12,29,19.30
2016,07,15,12,30,19.30
2016,07,15,12,31,19.30
2016,07,15,12,32,19.30
2016,07,15,12,33,19.30
2016,07,15,12,34,19.30
2016,07,15,12,35,19.40
2016,07,15,12,36,19.40
2016,07,15,12,37,19.50
2016,07,15,12,38,19.50
2016,07,15,12,39,19.50
2016,07,15,12,40,19.50
2016,07,15,12,41,19.60
2016,07,15,12,42,19.60
2016,07,15,12,43,19.70
2016,07,15,12,44,19.70
2016,07,15,12,45,19.70
2016,07,15,12,46,19.70
2016,07,15,12,47,19.60
2016,07,15,12,48,19.60
2016,07,15,12,49,19.70
2016,07,15,12,50,19.70
2016,07,15,12,51,19.70
2016,07,15,12,52,19.80
2016,07,15,12,53,19.90
2016,07,15,12,54,20.00
2016,07,15,12,55,20.10
2016,07,15,12,56,20.10
2016,07,15,12,57,20.10
2016,07,15,12,58,20.00
2016,07,15,12,59,20.00
2016,07,15,13,00,19.90
2016,07,15,13,01,19.90
2016,07,15,13,02,19.80
2016,07,15,13,03,19.80
2016,07,15,13,04,19.80
2016,07,15,13,05,19.80
2016,07,15,13,06,19.90
2016,07,15,13,07,19.90
2016,07,15,13,08,20.00
2016,07,15,13,09,20.10
2016,07,15,13,10,20.10
2016,07,15,13,11,20.00
2016,07,15,13,12,20.00
2016,07,15,13,13,20.00
2016,07,15,13,14,20.00
2016,07,15,13,15,20.10
2016,07,15,13,16,20.20
2016,07,15,13,17,20.20
2016,07,15,13,18,20.10
2016,07,15,13,19,20.10
2016,07,15,13,20,20.10
2016,07,15,13,21,20.20
2016,07,15,13,22,20.30
2016,07,15,13,23,20.30
2016,07,15,13,24,20.40
2016,07,15,13,25,20.50
2016,07,15,13,26,20.60
2016,07,15,13,27,20.70
2016,07,15,13,28,20.80
2016,07,15,13,29,20.80
2016,07,15,13,30,20.80
2016,07,15,13,31,20.80
2016,07,15,13,32,20.80
2016,07,15,13,33,20.80
2016,07,15,13,34,20.70
2016,07,15,13,35,20.70
2016,07,15,13,36,20.70
2016,07,15,13,37,20.60
2016,07,15,13,38,20.50
2016,07,15,13,39,20.50
2016,07,15,13,40,20.50
2016,07,15,13,41,20.60
2016,07,15,13,42,20.70
2016,07,15,13,43,20.80
2016,07,15,13,44,20.90
2016,07,15,13,45,21.10
2016,07,15,13,46,21.20
2016,07,15,13,47,21.20
2016,07,15,13,48,21.20
2016,07,15,13,49,21.10
2016,07,15,13,50,21.10
2016,07,15,13,51,21.10
2016,07,15,13,52,21.20
2016,07,15,13,53,21.30
2016,07,15,13,54,21.30
2016,07,15,13,55,21.30
2016,07,15,13,56,21.30
2016,07,15,13,57,21.30
2016,07,15,13,58,21.30
2016,07,15,13,59,21.30
2016,07,15,14,00,21.30
2016,07,15,14,01,21.30
2016,07,15,14,02,21.40
2016,07,15,14,03,21.50
2016,07,15,14,04,21.60
2016,07,15,14,05,21.60
2016,07,15,14,06,21.60
2016,07,15,14,07,21.60
2016,07,15,14,08,21.60
2016,07,15,14,09,21.50
2016,07,15,14,10,21.40
2016,07,15,14,11,21.40
2016,07,15,14,12,21.40
2016,07,15,14,13,21.40
2016,07,15,14,14,21.40
2016,07,15,14,15,21.40
2016,07,15,14,16,21.40
2016,07,15,14,17,21.50
2016,07,15,14,18,21.60
2016,07,15,14,19,21.60
2016,07,15,14,20,21.70
2016,07,15,14,21,21.70
2016,07,15,14,22,21.60
2016,07,15,14,23,21.60
2016,07,15,14,24,21.60
2016,07,15,14,25,21.60
2016,07,15,14,26,21.60
2016,07,15,14,27,21.60
2016,07,15,14,28,21.70
2016,07,15,14,29,21.80
2016,07,15,14,30,21.80
2016,07,15,14,31,21.70
2016,07,15,14,32,21.70
2016,07,15,14,33,21.60
2016,07,15,14,34,21.60
2016,07,15,14,35,21.60
2016,07,15,14,36,21.60
2016,07,15,14,37,21.60
2016,07,15,14,38,21.60
2016,07,15,14,39,21.60
2016,07,15,14,40,21.70
2016,07,15,14,41,21.80
2016,07,15,14,42,21.90
2016,07,15,14,43,22.00
2016,07,15,14,44,22.10
2016,07,15,14,45,22.20
2016,07,15,14,46,22.20
2016,07,15,14,47,22.20
2016,07,15,14,48,22.20
2016,07,15,14,49,22.10
2016,07,15,14,50,22.10
2016,07,15,14,51,22.10
2016,07,15,14,52,22.00
2016,07,15,14,53,21.90
2016,07,15,14,54,21.80
2016,07,15,14,55,21.80
2016,07,15,14,56,21.70
2016,07,15,14,57,21.70
2016,07,15,14,58,21.70
2016,07,15,14,59,21.70
2016,07,15,15,00,21.70
2016,07,15,15,01,21.80
2016,07,15,15,02,21.80
2016,07,15,15,03,21.80
2016,07,15,15,04,21.80
2016,07,15,15,05,21.80
2016,07,15,15,06,21.80
2016,07,15,15,07,21.80
2016,07,15,15,08,21.90
2016,07,15,15,09,21.90
2016,07,15,15,10,21.90
2016,07,15,15,11,21.90
2016,07,15,15,12,21.90
2016,07,15,15,13,21.90
2016,07,15,15,14,22.00
2016,07,15,15,15,22.20
2016,07,15,15,16,22.30
2016,07,15,15,17,22.30
2016,07,15,15,18,22.40
2016,07,15,15,19,22.50
2016,07,15,15,20,22.50
2016,07,15,15,21,22.60
2016,07,15,15,22,22.70
2016,07,15,15,23,22.80
2016,07,15,15,24,22.90
2016,07,15,15,25,23.00
2016,07,15,15,26,23.10
2016,07,15,15,27,23.20
2016,07,15,15,28,23.20
2016,07,15,15,29,23.20
2016,07,15,15,30,23.30
2016,07,15,15,31,23.30
2016,07,15,15,32,23.40
2016,07,15,15,33,23.40
2016,07,15,15,34,23.50
2016,07,15,15,35,23.60
2016,07,15,15,36,23.60
2016,07,15,15,37,23.70
2016,07,15,15,38,23.60
2016,07,15,15,39,23.60
2016,07,15,15,40,23.50
2016,07,15,15,41,23.40
2016,07,15,15,42,23.40
2016,07,15,15,43,23.40
2016,07,15,15,44,23.40
2016,07,15,15,45,23.40
2016,07,15,15,46,23.40
2016,07,15,15,47,23.40
2016,07,15,15,48,23.40
2016,07,15,15,49,23.40
2016,07,15,15,50,23.40
2016,07,15,15,51,23.40
2016,07,15,15,52,23.50
2016,07,15,15,53,23.40
2016,07,15,15,54,23.50
2016,07,15,15,55,23.50
2016,07,15,15,56,23.50
2016,07,15,15,57,23.50
2016,07,15,15,58,23.40
2016,07,15,15,59,23.40
2016,07,15,16,00,23.30
2016,07,15,16,01,23.20
2016,07,15,16,02,23.10
2016,07,15,16,03,23.00
2016,07,15,16,04,22.90
2016,07,15,16,05,22.80
2016,07,15,16,06,22.70
2016,07,15,16,07,22.60
2016,07,15,16,08,22.60
2016,07,15,16,09,22.60
2016,07,15,16,10,22.70
2016,07,15,16,11,22.70
2016,07,15,16,12,22.90
2016,07,15,16,13,23.00
2016,07,15,16,14,23.10
2016,07,15,16,15,23.20
2016,07,15,16,16,23.20
2016,07,15,16,17,23.20
2016,07,15,16,18,23.20
2016,07,15,16,19,23.30
2016,07,15,16,20,23.30
2016,07,15,16,21,23.40
2016,07,15,16,22,23.50
2016,07,15,16,23,23.60
2016,07,15,16,24,23.70
2016,07,15,16,25,23.70
2016,07,15,16,26,23.80
2016,07,15,16,27,23.80
2016,07,15,16,28,23.70
2016,07,15,16,29,23.60
2016,07,15,16,30,23.50
2016,07,15,16,31,23.50
2016,07,15,16,32,23.50
2016,07,15,16,33,23.60
2016,07,15,16,34,23.50
2016,07,15,16,35,23.50
2016,07,15,16,36,23.50
2016,07,15,16,37,23.50
2016,07,15,16,38,23.50
2016,07,15,16,39,23.50
2016,07,15,16,40,23.40
2016,07,15,16,41,23.40
2016,07,15,16,42,23.40
2016,07,15,16,43,23.40
2016,07,15,16,44,23.30
2016,07,15,16,45,23.30
2016,07,15,16,46,23.40
2016,07,15,16,47,23.40
2016,07,15,16,48,23.50
2016,07,15,16,49,23.60
2016,07,15,16,50,23.70
2016,07,15,16,51,23.70
2016,07,15,16,52,23.80
2016,07,15,16,53,23.80
2016,07,15,16,54,23.80
2016,07,15,16,55,23.90
2016,07,15,16,56,23.90
2016,07,15,16,57,23.90
2016,07,15,16,58,23.80
2016,07,15,16,59,23.60
2016,07,15,17,00,23.40
2016,07,15,17,01,23.30
2016,07,15,17,02,23.20
2016,07,15,17,03,23.20
2016,07,15,17,04,23.30
2016,07,15,17,05,23.30
2016,07,15,17,06,23.30
2016,07,15,17,07,23.30
2016,07,15,17,08,23.40
2016,07,15,17,09,23.40
2016,07,15,17,10,23.40
2016,07,15,17,11,23.40
2016,07,15,17,12,23.40
2016,07,15,17,13,23.30
2016,07,15,17,14,23.30
2016,07,15,17,15,23.40
2016,07,15,17,16,23.50
2016,07,15,17,17,23.50
2016,07,15,17,18,23.60
2016,07,15,17,19,23.70